E24CR-1 Weather Reports


Display with metric or nautical units.
time (UTC)temp
F
wind
direction
speed
MPH
gust
MPH
rain 1hr
in
rain 24hr
in
rain mn
in
humidity
%
barometer
mb
20260903182048 77 0 0.0 0.0 0.00 0.00 0.00 81 950.0
20260903181023 77 0 0.0 0.0 0.00 0.00 0.00 81 950.0
20260903175959 78 0 0.0 0.0 0.00 0.00 0.00 80 950.0
20260903174934 78 0 0.0 0.0 0.00 0.00 0.00 81 950.0
20260903173910 78 0 0.0 0.0 0.00 0.00 0.00 80 951.0
20260903172845 78 0 0.0 0.0 0.00 0.00 0.00 77 951.0
20260903171820 78 0 0.0 0.0 0.00 0.00 0.00 77 951.0
20260903170755 78 0 0.0 0.0 0.00 0.00 0.00 76 951.0
20260903165731 79 0 0.0 0.0 0.00 0.00 0.00 75 951.0
20260903164707 78 0 0.0 0.0 0.00 0.00 0.00 75 951.0
20260903163642 78 0 0.0 0.0 0.00 0.00 0.00 75 951.0
20260903162618 78 0 0.0 0.0 0.00 0.00 0.00 81 951.0
20260903161554 78 0 0.0 0.0 0.00 0.00 0.00 81 951.0
20260903160529 78 0 0.0 0.0 0.00 0.00 0.00 82 951.0
20260903155505 78 0 0.0 0.0 0.00 0.00 0.00 83 951.0
20260903154441 78 0 0.0 0.0 0.00 0.00 0.00 84 951.0
20260903153416 77 0 0.0 0.0 0.00 0.00 0.00 84 951.0
20260903152352 77 0 0.0 0.0 0.00 0.00 0.00 84 951.0
20260903151327 77 0 0.0 0.0 0.00 0.00 0.00 83 951.0
20260903150303 78 0 0.0 0.0 0.00 0.00 0.00 83 951.0
20260903145239 78 0 0.0 0.0 0.00 0.00 0.00 82 951.0
20260903144214 78 0 0.0 0.0 0.00 0.00 0.00 81 951.0
20260903143150 78 0 0.0 0.0 0.00 0.00 0.00 81 950.0
20260903142126 78 0 0.0 0.0 0.00 0.00 0.00 81 950.0
20260903141102 79 0 0.0 0.0 0.00 0.00 0.00 81 950.0
20260903140037 79 0 0.0 0.0 0.00 0.00 0.00 80 950.0
20260903135012 80 0 0.0 0.0 0.00 0.00 0.00 80 950.0
20260903133948 80 0 0.0 0.0 0.00 0.00 0.00 80 950.0
20260903132923 80 0 0.0 0.0 0.00 0.00 0.00 81 950.0
20260903131859 80 0 0.0 0.0 0.00 0.00 0.00 80 949.0
20260903130834 80 0 0.0 0.0 0.00 0.00 0.00 80 949.0
20260903125810 80 0 0.0 0.0 0.00 0.00 0.00 80 949.0
20260903124746 80 0 0.0 0.0 0.00 0.00 0.00 79 949.0
20260903123722 80 0 0.0 0.0 0.00 0.00 0.00 77 949.0
20260903122658 80 0 0.0 0.0 0.00 0.00 0.00 78 949.0
20260903121633 80 0 0.0 0.0 0.00 0.00 0.00 79 949.0
20260903120609 80 0 0.0 0.0 0.00 0.00 0.00 79 949.0
20260903115544 80 0 0.0 0.0 0.00 0.00 0.00 78 948.0
20260903114517 80 0 0.0 0.0 0.00 0.00 0.00 79 948.0
20260903113452 80 0 0.0 0.0 0.00 0.00 0.00 80 948.0
20260903112427 81 0 0.0 0.0 0.00 0.00 0.00 78 948.0
20260903111358 81 0 0.0 0.0 0.00 0.00 0.00 77 948.0
20260903110331 81 0 0.0 0.0 0.00 0.00 0.00 77 948.0
20260903105306 81 0 0.0 0.0 0.00 0.00 0.00 78 948.0
20260903104238 82 0 0.0 0.0 0.00 0.00 0.00 77 948.0
20260903103213 82 0 0.0 0.0 0.00 0.00 0.00 77 948.0
20260903102148 83 0 0.0 0.0 0.00 0.00 0.00 75 947.0
20260903101122 84 0 0.0 0.0 0.00 0.00 0.00 70 947.0
20260903100054 84 0 0.0 0.0 0.00 0.00 0.00 69 948.0
20260903095023 84 0 0.0 0.0 0.00 0.00 0.00 67 948.0
20260903093958 84 0 0.0 0.0 0.00 0.00 0.00 68 948.0
20260903092933 84 0 0.0 0.0 0.00 0.00 0.00 66 948.0
20260903091908 83 0 0.0 0.0 0.00 0.00 0.00 65 948.0
20260903090843 83 0 0.0 0.0 0.00 0.00 0.00 67 948.0
20260903085818 81 0 0.0 0.0 0.00 0.00 0.00 72 948.0
20260903084751 82 0 0.0 0.0 0.00 0.00 0.00 73 948.0
20260903083725 83 0 0.0 0.0 0.00 0.00 0.00 71 948.0
20260903082657 83 0 0.0 0.0 0.00 0.00 0.00 68 948.0
20260903081632 86 0 0.0 0.0 0.00 0.00 0.00 63 948.0
20260903080607 87 0 0.0 0.0 0.00 0.00 0.00 63 948.0
20260903075543 86 0 0.0 0.0 0.00 0.00 0.00 64 948.0
20260903074518 85 0 0.0 0.0 0.00 0.00 0.00 63 948.0
20260903073451 87 0 0.0 0.0 0.00 0.00 0.00 63 949.0
20260903072423 87 0 0.0 0.0 0.00 0.00 0.00 59 949.0
20260903071358 87 0 0.0 0.0 0.00 0.00 0.00 63 949.0
20260903070334 87 0 0.0 0.0 0.00 0.00 0.00 65 949.0
20260903065307 86 0 0.0 0.0 0.00 0.00 0.00 61 949.0
20260903064615 87 0 0.0 0.0 0.00 0.00 0.00 61 949.0
20260903063550 88 0 0.0 0.0 0.00 0.00 0.00 58 950.0
20260903062525 87 0 0.0 0.0 0.00 0.00 0.00 62 950.0
20260903061453 86 0 0.0 0.0 0.00 0.00 0.00 68 950.0
20260903060424 87 0 0.0 0.0 0.00 0.00 0.00 66 950.0
20260903055359 86 0 0.0 0.0 0.00 0.00 0.00 65 950.0
20260903054334 85 0 0.0 0.0 0.00 0.00 0.00 66 951.0
20260903053307 85 0 0.0 0.0 0.00 0.00 0.00 71 951.0
20260903052242 85 0 0.0 0.0 0.00 0.00 0.00 67 951.0
20260903051140 85 0 0.0 0.0 0.00 0.00 0.00 71 951.0
20260903050116 85 0 0.0 0.0 0.00 0.00 0.00 69 951.0
20260903045051 84 0 0.0 0.0 0.00 0.00 0.00 72 952.0
20260903044026 84 0 0.0 0.0 0.00 0.00 0.00 72 952.0
20260903043001 83 0 0.0 0.0 0.00 0.00 0.00 72 952.0
20260903041936 82 0 0.0 0.0 0.00 0.00 0.00 77 952.0
20260903040912 80 0 0.0 0.0 0.00 0.00 0.00 77 952.0
20260903035847 80 0 0.0 0.0 0.00 0.00 0.00 78 952.0
20260903034822 81 0 0.0 0.0 0.00 0.00 0.00 78 952.0
20260903033758 79 0 0.0 0.0 0.00 0.00 0.00 79 952.0
20260903032733 79 0 0.0 0.0 0.00 0.00 0.00 85 952.0
20260903031707 78 0 0.0 0.0 0.00 0.00 0.00 86 952.0
20260903030642 78 0 0.0 0.0 0.00 0.00 0.00 84 952.0
20260903025617 79 0 0.0 0.0 0.00 0.00 0.00 88 952.0
20260903024550 79 0 0.0 0.0 0.00 0.00 0.00 86 952.0
20260903023525 80 0 0.0 0.0 0.00 0.00 0.00 83 952.0
20260903022501 79 0 0.0 0.0 0.00 0.00 0.00 82 952.0
20260903021436 78 0 0.0 0.0 0.00 0.00 0.00 86 952.0
20260903020412 77 0 0.0 0.0 0.00 0.00 0.00 89 952.0
20260903015347 76 0 0.0 0.0 0.00 0.00 0.00 91 952.0
20260903014322 76 0 0.0 0.0 0.00 0.00 0.00 92 952.0
20260903013257 75 0 0.0 0.0 0.00 0.00 0.00 95 952.0
20260903012232 75 0 0.0 0.0 0.00 0.00 0.00 95 952.0
20260903011207 75 0 0.0 0.0 0.00 0.00 0.00 97 952.0
20260903010141 74 0 0.0 0.0 0.00 0.00 0.00 98 952.0
20260903005117 74 0 0.0 0.0 0.00 0.00 0.00 99 952.0
20260903004052 73 0 0.0 0.0 0.00 0.00 0.00 99 952.0
20260903003027 73 0 0.0 0.0 0.00 0.00 0.00 98 952.0
20260903002003 73 0 0.0 0.0 0.00 0.00 0.00 99 952.0
20260903000937 72 0 0.0 0.0 0.00 0.00 0.00 99 952.0
20260902235910 72 0 0.0 0.0 0.00 0.00 0.00 99 952.0
20260902234841 72 0 0.0 0.0 0.00 0.00 0.00 99 952.0
20260902234457 72 0 0.0 0.0 0.00 0.00 0.00 99 952.0
20260902233431 71 0 0.0 0.0 0.00 0.00 0.00 99 951.0
20260902232402 71 0 0.0 0.0 0.00 0.00 0.00 99 951.0
20260902231337 71 0 0.0 0.0 0.00 0.00 0.00 99 951.0
20260902230310 72 0 0.0 0.0 0.00 0.00 0.00 99 951.0
20260902225245 72 0 0.0 0.0 0.00 0.00 0.00 99 951.0
20260902224216 72 0 0.0 0.0 0.00 0.00 0.00 99 951.0
20260902223151 72 0 0.0 0.0 0.00 0.00 0.00 99 951.0
20260902222125 72 0 0.0 0.0 0.00 0.00 0.00 99 951.0
20260902221058 72 0 0.0 0.0 0.00 0.00 0.00 99 951.0
20260902220032 72 0 0.0 0.0 0.00 0.00 0.00 99 951.0
20260902215008 72 0 0.0 0.0 0.00 0.00 0.00 99 951.0
20260902213944 72 0 0.0 0.0 0.00 0.00 0.00 99 951.0
20260902212920 72 0 0.0 0.0 0.00 0.00 0.00 99 951.0
20260902211855 72 0 0.0 0.0 0.00 0.00 0.00 99 951.0
20260902210831 72 0 0.0 0.0 0.00 0.00 0.00 99 951.0
20260902205807 72 0 0.0 0.0 0.00 0.00 0.00 99 951.0
20260902204741 72 0 0.0 0.0 0.00 0.00 0.00 99 951.0
20260902203717 72 0 0.0 0.0 0.00 0.00 0.00 99 951.0
20260902202653 72 0 0.0 0.0 0.00 0.00 0.00 97 951.0
20260902201628 71 0 0.0 0.0 0.00 0.00 0.00 96 951.0
20260902200603 71 0 0.0 0.0 0.00 0.00 0.00 95 951.0
20260902195836 71 0 0.0 0.0 0.00 0.00 0.00 96 951.0
20260902194811 71 0 0.0 0.0 0.00 0.00 0.00 97 951.0
20260902193747 71 0 0.0 0.0 0.00 0.00 0.00 97 951.0
20260902192722 71 0 0.0 0.0 0.00 0.00 0.00 96 951.0
20260902191658 71 0 0.0 0.0 0.00 0.00 0.00 96 951.0
20260902190633 71 0 0.0 0.0 0.00 0.00 0.00 97 951.0
20260902185609 71 0 0.0 0.0 0.00 0.00 0.00 97 951.0
20260902184543 71 0 0.0 0.0 0.00 0.00 0.00 96 951.0
20260902183519 71 0 0.0 0.0 0.00 0.00 0.00 96 952.0